Location: Unspecified
(0.0000°N, 0.0000°E)
Time: 20:29:13
(UTC+00:00)

LATINSAT B - Visible Passes

Search period start: 27 February 2024 00:00
Search period end: 08 March 2024 00:00
Orbit: 611 x 685 km, 64.6° (Epoch: 26 February)

Date Brightness Start Highest point End Pass type
(mag) Time Alt. Az. Time Alt. Az. Time Alt. Az.
04 Mar ? 19:39:24 10° N 19:42:21 39° N 19:42:21 39° N visible
05 Mar ? 20:06:06 10° NW 20:10:09 36° WSW 20:11:01 32° SW visible
06 Mar ? 18:52:18 10° N 18:56:20 35° ENE 19:00:24 10° SE visible
07 Mar ? 19:18:24 10° NNW 19:22:45 59° WSW 19:27:09 10° SSE visible
